User: anonymous   Login
Location: Vancouver
(49.2500°N, 123.1330°W)
Time: 16:39:32
(UTC-08:00)
Language:

Cosmos 1864 Rocket - Orbit

View from above orbital plane
View from above orbital plane
View from above satellite
View from above satellite

Ground track
Ground track

The orbit data is extracted from the following two-line orbital elements,

1 18161U 87057B   17347.22776642  .00000073  00000-0  58237-4 0  9991
2 18161  82.9337 298.6941 0031303 170.0305 305.8927 13.76992554508868
Epoch (UTC): 13 December 2017 05:27:59
Eccentricity: 0.0031303
inclination: 82.9337°
perigee height: 951 km
apogee height: 997 km
right ascension of ascending node: 298.6941°
argument of perigee: 170.0305°
revolutions per day: 13.76992554
mean anomaly at epoch: 305.8927°
orbit number at epoch: 50886

The dashed part of the orbit path shows where the satellite is in the earth's shadow,  

DLR